User: anonymous   Login
Location: Unspecified
(0.0000°N, 0.0000°E)
Time: 12:24:16
(UTC+00:00)
Language:

DX 1 - Orbit

View from above orbital plane
View from above orbital plane
View from above satellite
View from above satellite

Ground track
Ground track

The orbit data is extracted from the following two-line orbital elements,

1 40071U 14037C   19085.18387097  .00000091  00000-0  19165-4 0  9999
2 40071  98.4116 234.8168 0009613 130.3644 229.8413 14.81244929254740
Epoch (UTC): 26 March 2019 04:24:46
Eccentricity: 0.0009613
inclination: 98.4116°
perigee height: 618 km
apogee height: 632 km
right ascension of ascending node: 234.8168°
argument of perigee: 130.3644°
revolutions per day: 14.81244929
mean anomaly at epoch: 229.8413°
orbit number at epoch: 25474

The dashed part of the orbit path shows where the satellite is in the earth's shadow,  

DLR